Presure
136 129 156 190 174 168 163 125 147 135 166 222 145 211 226 193 210 204 207 204 202 207 205 196 184 200 203 200 194 196 170 169 163 188 158 140 201 198 188 192 187 184 199 203 210
177 163 176 188 164 178 174 190 181 146 155 195 197 218 170 180 171 144 188 207 205 202 166 195 202 203 201 195 197 200 197 192 194 200 193 197 197 186 194 196 201 204 202 207 170
148 106 170 181 161 184 171 171 197 180 169 175 175 173 161 182 175 217 214 214 204 214 204 205 199 194 196 193 188 190 184 187 196 195 197 191 195 200 203 206 214 215 207 189 213
198 155 145 180 113 186 129 195 150 169 207 194 145 182 147 137 184 215 151 181 214 199 195 158 202 204 198 195 204 200 193 206 203 197 200 196 201 204 199 209 209 201 196 194 201
156 173 177 165 178 150 163 179 179 181 186 160 168 171 133 172 177 187 180 200 209 196 211 176 200 183 175 188 164 183 168 196 197 198 202 198 199 165 146 189 186 198 202 210 214
196 177 202 191 179 175 173 132 152 184 135 181 163 124 152 163 149 120 187 133 136 149 150 210 185 173 197 152 179 201 196 168 180 170 198 192 156 205 184 194 193 190 201 209 203
190 158 152 185 192 182 148 196 139 152 178 124 190 145 147 171 163 182 115 129 177 129 147 211 204 216 192 142 197 193 186 186 195 188 186 173 178 183 185 187 200 143 207 200 201
189 177 150 185 160 132 157 169 177 182 148 161 176 156 136 195 193 147 121 154 130 172 123 187 188 155 213 207 188 174 183 193 180 188 192 194 190 191 192 191 179 197 199 199 207
164 195 191 189 160 183 130 156 195 175 189 164 174 138 217 159 182 199 215 185 225 181 221 187 196 190 198 203 163 201 201 200 189 198 194 193 193 190 189 206 199 210 195 202 201
183 148 183 172 137 169 157 150 180 164 183 188 159 219 173 174 211 239 174 232 237 224 209 219 227 195 202 219 200 199 208 203 201 205 177 200 196 196 194 195 185 189 187 190 195
175 183 180 150 189 197 194 153 205 145 217 222 228 220 235 232 239 246 240 238 229 213 207 240 228 232 207 224 204 217 194 199 201 205 196 211 200 208 209 206 189 185 200 194 202
181 183 189 206 194 196 200 216 190 218 217 229 232 240 263 264 252 274 271 262 258 226 256 233 224 224 223 217 224 210 206 207 202 198 201 190 195 198 195 173 197 200 203 201 200
187 196 210 218 205 208 209 214 213 216 225 223 256 268 261 301 302 293 298 272 272 269 261 249 231 227 229 225 217 224 216 220 210 202 202 209 202 197 203 206 178 195 189 203 193
197 213 210 216 218 202 214 215 216 222 234 265 266 293 289 287 288 287 287 287 293 292 312 306 262 239 233 232 223 218 211 224 217 210 203 205 196 197 199 143 203 198 202 192 206
215 212 207 219 213 212 204 213 223 235 257 241 279 276 278 273 270 281 276 283 285 286 283 290 291 293 294 268 253 240 231 228 218 218 215 207 214 211 211 202 204 206 205 206 215
225 228 212 215 216 212 214 225 243 242 259 290 279 274 273 267 271 275 273 278 275 274 274 275 283 282 282 281 257 241 231 229 224 217 216 211 218 210 211 168 208 210 209 199 195
226 227 222 217 211 218 225 233 238 267 272 274 275 273 273 272 272 272 269 268 271 268 270 275 268 280 274 276 269 256 240 236 228 222 215 214 215 216 184 218 208 209 206 194 169
217 223 220 218 219 228 233 249 257 249 280 277 275 272 276 269 265 271 267 270 279 274 273 271 263 268 274 272 271 273 247 243 237 233 226 230 230 224 223 169 210 210 159 175 211
226 225 227 225 236 240 259 229 262 278 281 274 274 268 277 352 352 339 339 346 353 357 360 279 273 262 266 266 266 264 261 278 260 259 248 259 251 239 220 86 98 210 208 129 88
229 227 232 224 226 251 239 255 284 274 269 272 264 357 341 332 324 324 335 334 333 347 356 355 291 274 262 267 261 261 260 255 264 253 252 251 251 236 163 224 220 219 194 133 108
211 211 234 251 255 257 249 265 275 271 269 262 344 315 320 319 314 370 365 361 338 330 338 350 352 332 274 268 264 258 264 257 254 261 249 238 241 252 247 232 227 225 223 228 233
245 262 263 258 251 251 262 280 276 266 280 335 305 307 312 382 377 367 361 368 209 379 402 331 347 343 284 274 268 267 257 264 194 250 252 260 257 261 254 248 246 247 248 241 235
256 251 256 242 251 258 274 272 256 258 322 305 302 304 373 367 371 356 354 359 354 352 368 403 337 334 332 289 116 262 265 260 262 263 256 255 248 251 251 254 253 248 254 243 237
245 257 253 254 255 268 270 253 259 301 305 297 298 360 375 383 406 398 376 362 355 345 354 377 400 366 322 325 281 159 266 265 271 260 256 254 252 257 252 256 258 262 253 257 246
248 251 246 257 272 265 253 255 277 310 293 296 368 389 444 428 415 410 371 357 357 354 353 358 368 388 315 314 325 276 264 263 273 275 273 255 261 261 258 265 261 263 258 262 251
246 244 249 276 269 251 258 271 311 294 292 367 415 432 413 402 390 382 356 342 340 343 343 356 367 370 93 369 309 320 332 274 272 268 274 276 272 253 259 257 252 254 254 253 249
252 254 277 267 246 255 265 305 300 290 357 379 428 414 391 376 365 355 349 343 345 371 368 351 371 391 401 383 346 360 293 268 314 276 274 265 259 135 269 266 259 254 241 250 173
Wind_Speed
56 61 54 43 48 52 58 64 62 61 68 53 71 61 53 61 67 70 68 72 70 65 67 75 70 69 67 67 71 70 75 76 81 78 80 63 63 59 62 60 65 64 58 55 52
55 47 51 48 52 56 52 51 54 50 52 56 57 57 63 68 72 73 71 72 74 73 71 77 71 70 70 75 71 68 67 69 70 72 76 71 67 68 59 58 61 63 59 57 61
51 50 51 52 62 54 57 64 55 59 69 58 64 67 79 62 71 65 68 70 75 71 73 76 78 79 77 77 79 78 72 79 70 75 74 74 71 65 61 62 60 61 60 53 56
59 67 55 56 59 61 53 60 66 65 57 63 65 66 71 69 72 72 76 73 76 78 79 77 77 77 81 78 78 75 76 72 72 75 76 76 72 66 67 64 59 57 57 56 58
53 54 57 54 62 55 66 57 62 64 67 65 68 70 70 75 79 73 75 78 79 82 82 79 83 81 77 73 75 72 76 76 74 73 73 77 75 75 41 63 62 56 59 61 61
61 56 64 63 60 62 65 59 62 68 65 69 69 69 75 74 78 67 79 76 72 76 78 86 82 79 85 75 79 80 80 78 79 74 77 78 78 70 67 69 60 59 63 64 60
58 68 52 59 69 66 75 71 67 79 71 68 77 71 73 81 84 84 57 75 83 76 78 93 93 88 86 64 86 87 85 84 82 81 81 81 75 75 73 69 72 66 67 62 62
64 68 69 65 76 54 73 67 67 74 77 78 78 75 73 91 89 79 71 80 64 89 70 88 90 77 90 96 89 86 86 86 84 88 90 85 79 78 77 74 65 70 65 66 69
67 69 68 69 67 70 59 70 84 79 88 86 84 76 91 91 99 103 101 94 98 88 99 91 90 92 95 97 73 93 95 95 97 91 89 87 85 83 80 79 71 70 67 68 65
70 57 74 69 61 73 86 86 87 88 86 94 90 93 92 93 102 91 94 95 89 98 100 99 102 90 98 94 98 101 93 98 94 94 80 89 89 88 85 80 72 71 69 67 66
74 76 74 84 86 91 89 86 87 83 92 91 93 96 101 101 96 88 87 85 91 99 101 96 101 90 103 98 105 101 99 98 97 93 92 85 88 82 80 79 78 74 77 75 72
84 80 84 90 89 92 92 94 86 91 93 99 100 98 88 84 87 80 81 81 81 96 87 98 94 100 102 102 99 105 100 99 101 99 98 92 87 85 83 74 78 76 79 77 76
82 88 93 94 92 93 92 95 91 95 103 100 103 91 88 82 76 75 77 84 83 86 91 94 101 103 103 103 101 98 97 98 101 103 99 93 89 91 86 82 76 82 77 77 75
89 96 93 95 96 89 99 95 94 102 107 100 92 76 72 74 70 67 63 64 65 68 64 71 92 102 106 102 103 100 102 97 102 103 99 96 91 93 88 53 84 80 82 79 75
95 96 91 97 92 95 82 93 104 108 104 96 81 76 72 73 74 73 68 64 62 61 64 61 67 73 81 88 95 90 99 98 101 99 99 93 89 92 86 91 89 85 80 76 74
101 100 94 95 97 91 95 108 111 105 98 72 74 74 76 76 76 74 73 70 64 62 63 59 61 68 70 78 92 92 98 97 99 99 95 91 90 92 89 65 89 86 83 75 73
99 99 99 97 95 104 110 108 105 90 86 79 78 78 79 76 79 76 72 71 70 65 66 61 62 62 69 72 81 88 95 97 98 97 92 98 93 92 69 84 86 86 81 71 50
95 100 101 100 103 108 110 107 95 92 78 80 80 80 81 77 75 78 77 76 75 71 69 67 63 62 64 68 70 75 88 91 92 94 94 98 93 92 85 52 85 83 54 51 77
99 100 105 105 108 107 94 99 91 84 80 81 83 80 81 68 64 62 63 63 64 64 64 70 68 66 63 66 71 71 74 66 81 77 83 77 83 87 86 18 17 81 81 36 22
101 102 105 100 99 98 98 93 78 80 83 83 81 67 66 63 62 60 59 60 60 60 59 60 68 70 68 66 72 71 73 75 76 80 77 71 76 87 50 84 84 82 70 47 35
94 96 102 93 91 88 91 89 83 82 83 82 71 68 66 63 61 53 50 53 56 57 58 58 58 65 69 72 74 74 72 78 78 77 80 80 83 85 78 81 81 79 78 76 70
95 86 81 83 86 87 90 83 81 82 84 73 70 68 67 53 46 46 46 45 29 46 46 56 56 59 74 74 77 75 77 79 56 80 79 77 81 78 77 80 81 75 71 72 73
85 85 82 87 82 87 83 80 78 81 78 73 72 69 58 54 47 43 45 44 43 45 44 43 55 60 63 76 22 78 77 82 84 84 82 82 78 76 73 73 72 69 68 71 74
85 76 77 79 83 82 78 77 80 78 74 72 72 62 55 49 39 32 35 37 37 42 42 40 41 52 65 73 80 44 82 83 85 83 83 76 78 76 74 73 67 65 62 66 72
77 74 76 79 80 76 74 77 78 74 73 71 61 54 30 24 23 20 27 31 31 33 36 37 39 43 65 70 74 81 82 80 80 80 84 78 80 76 75 71 67 66 59 63 68
73 75 77 75 72 70 72 76 73 71 72 62 45 22 21 15 14 16 22 23 27 30 33 31 36 40 16 49 71 76 80 83 80 77 77 77 79 73 72 69 64 63 60 61 62
73 73 70 67 66 70 72 75 69 71 62 56 20 16 11 9 12 16 18 20 21 19 20 27 25 27 29 42 37 58 65 57 87 82 77 68 66 23 70 70 66 64 59 62 43
Wind_Direction
270 270 264 275 267 268 266 269 269 276 264 264 264 268 266 264 265 268 267 267 266 263 263 267 265 265 266 264 265 266 270 270 270 270 274 271 275 274 273 278 278 285 286 288 294
264 267 265 278 266 263 269 277 270 275 277 271 272 272 273 265 265 264 265 267 267 266 267 267 266 266 267 267 267 267 266 267 268 271 272 274 274 272 275 281 285 287 287 290 283
279 284 271 271 261 273 267 259 270 272 265 273 268 267 263 276 270 271 268 267 268 267 265 265 266 267 265 265 268 268 269 268 272 271 273 274 277 279 285 286 283 284 285 279 290
269 267 278 263 275 272 262 273 264 267 277 276 275 275 268 273 275 266 265 272 265 266 272 262 265 263 266 268 267 268 269 272 273 275 277 278 280 284 279 283 283 281 281 282 285
278 269 274 274 266 273 261 266 271 271 271 270 275 274 272 269 275 277 271 272 266 278 263 265 266 269 269 261 265 264 265 268 270 272 275 276 277 273 271 275 273 282 285 285 281
268 261 267 271 269 264 262 269 268 271 263 270 268 269 269 272 268 284 276 274 280 265 264 264 261 264 267 269 270 264 267 266 273 273 271 274 269 278 274 274 280 281 283 283 283
270 258 268 270 273 272 276 271 281 281 270 263 272 281 281 266 266 271 280 277 270 274 267 263 264 260 268 271 266 266 269 270 267 269 270 271 273 276 278 282 282 272 282 283 280
274 271 281 276 276 272 281 261 269 273 279 264 267 276 280 274 270 268 276 265 274 269 279 267 266 266 260 260 268 269 269 267 271 269 267 268 269 271 273 276 276 278 279 280 277
266 276 276 278 281 278 280 281 280 278 279 278 269 278 276 269 272 272 271 269 270 268 266 268 265 264 264 262 263 261 261 261 263 261 267 270 272 276 276 273 274 273 276 274 278
282 280 278 276 276 280 267 275 277 275 274 277 274 278 276 277 275 277 268 273 267 263 265 265 260 261 260 256 260 259 257 259 262 262 269 264 266 268 271 274 275 277 276 280 281
279 282 283 273 281 279 281 275 283 282 284 286 288 278 287 282 283 278 272 267 264 266 265 256 258 258 257 255 257 252 261 260 260 260 263 260 261 262 264 266 274 277 274 277 275
276 281 282 278 281 281 282 286 284 288 289 295 295 293 289 286 284 278 273 270 266 263 256 253 254 254 253 254 252 255 256 255 259 261 261 264 266 266 267 266 268 268 269 272 274
280 278 280 281 281 286 287 289 290 292 296 295 296 293 290 278 275 275 272 268 264 261 256 251 250 252 251 251 255 252 254 250 252 258 259 258 261 265 264 264 266 268 270 270 273
279 278 280 282 284 283 288 290 291 296 296 297 294 286 283 283 281 279 274 269 266 263 262 260 252 251 251 250 254 253 254 249 250 254 257 259 261 264 264 263 264 265 268 267 273
279 281 284 285 286 287 284 291 296 298 296 297 293 291 284 283 284 282 279 274 269 264 259 259 254 254 252 248 245 244 246 246 248 252 254 258 256 257 256 261 263 264 266 270 274
281 281 284 287 291 290 293 295 298 298 295 291 290 285 284 286 284 280 281 278 272 267 264 255 257 252 251 249 244 241 244 245 247 251 254 254 253 256 255 255 260 263 265 263 263
284 287 286 288 290 292 294 297 296 294 296 293 288 286 286 284 284 281 277 273 270 266 264 260 253 252 250 248 247 244 243 245 246 249 251 253 254 254 253 252 256 259 261 262 252
286 287 288 290 292 293 294 294 294 295 292 290 289 288 287 286 284 281 276 272 267 262 258 255 251 249 248 247 244 244 243 245 248 248 248 250 251 251 252 243 253 258 253 249 265
286 289 289 291 292 292 290 294 293 292 290 291 289 290 290 291 287 280 277 273 268 261 255 251 248 246 244 244 244 241 245 238 244 241 244 250 247 249 250 269 235 253 258 235 237
286 287 287 290 291 289 292 292 291 292 292 292 292 297 294 291 287 281 277 270 266 263 256 250 243 243 241 240 238 240 237 237 236 237 241 242 245 247 244 249 251 253 254 228 255
286 287 288 286 286 288 290 293 292 293 293 294 301 297 297 293 288 285 278 271 264 257 254 248 241 238 238 238 236 236 234 236 237 233 235 242 245 243 243 247 249 250 252 253 248
282 279 282 283 286 290 293 293 296 296 299 303 300 300 298 297 291 282 275 269 268 261 257 247 240 232 234 234 236 233 234 234 237 238 237 236 240 242 242 243 245 244 242 243 243
278 281 282 286 288 290 293 296 296 296 306 305 304 301 301 298 292 281 274 269 264 262 256 253 237 232 228 230 233 236 231 234 235 235 239 239 244 245 247 248 247 247 240 239 241
278 280 285 287 288 292 297 295 297 305 306 305 304 305 302 297 290 278 270 265 261 259 258 252 250 238 228 229 230 245 236 234 235 237 240 241 244 246 247 247 247 249 244 241 238
277 283 284 287 291 294 294 296 304 307 306 306 308 308 301 296 288 281 260 261 261 258 258 254 252 248 228 230 231 234 240 243 239 238 239 240 241 243 246 249 250 250 246 242 241
279 281 285 290 294 292 297 303 309 308 308 315 313 301 298 287 270 271 256 252 254 254 254 253 252 251 261 237 231 232 233 241 244 243 239 237 239 243 246 246 245 246 246 243 241
282 284 288 293 290 296 302 312 310 309 319 321 298 296 287 267 251 255 250 252 255 266 262 259 259 259 252 243 240 234 236 238 238 242 244 242 241 238 244 245 245 244 241 243 226